[[{"header":{"parameterUnit":"m.s-1","parameterCategory":1,"la1":30.2991,"la2":30.254,"lo1":-89.0895,"lo2":-89.0444,"dy":0.0017,"dx":0.0017,"nx":28,"ny":28,"refTime":"2024-04-17T09:00:00:Z","depth":0,"parameterNumber":2,"parameterNumberName":"U-component_of_WINDS"},"data":[0,0,0,0,0,0,0,0,0,0,0,0,0,0,0,0,0,0,0,0,0,0,0,0,0,0,0,0,0,0,0,0,0,0,0,0,0,0,0,0,0,0,0,0,0,0,0,0,0,0,0,0,0,0,0,0,0,0,1.1453,1.1453,0,1.1451,1.1451,1.1451,1.142,1.1419,1.1418,1.1417,1.1415,1.1416,1.1416,0,0,0,0,0,0,0,0,0,0,0,0,0,1.143,1.143,1.1453,1.1453,1.1453,1.1451,1.1451,1.1451,1.142,1.1419,1.1418,1.1417,1.1415,1.1415,1.1416,0,0,0,0,0,0,0,0,0,0,0,0,0,1.1435,1.1431,1.1453,1.1437,1.1436,1.1451,1.1451,1.1451,1.142,1.1419,1.1418,1.1416,1.1414,1.1415,1.1416,1.1446,0,0,1.1419,1.142,0,0,0,0,0,0,0,0,1.1435,1.1436,1.144,1.1438,1.1437,1.1434,1.1442,1.1449,1.142,1.1426,1.1417,1.1416,1.1422,1.1423,1.1425,1.1446,1.1446,1.142,1.142,1.1421,1.1421,0,0,0,0,0,0,0,1.1434,1.1436,1.1452,1.144,1.1438,1.143,1.1429,1.1443,1.1431,1.1425,1.1423,1.1423,1.1421,1.1424,1.1424,1.1446,1.142,1.142,1.1421,1.1421,1.1491,1.1492,0,0,0,0,0,0,1.1436,1.1436,1.1452,1.1452,1.1433,1.1431,1.1431,1.1436,1.1431,1.1429,1.1424,1.1422,1.1423,1.1423,1.1424,1.1458,1.1421,1.1422,1.1422,1.1489,1.1491,1.1492,0,0,0,0,0,0,1.1436,1.1438,1.1452,1.1443,1.1444,1.1433,1.1439,1.1437,1.1439,1.143,1.1427,1.1429,1.1422,1.1423,1.1441,1.1457,1.1422,1.1423,1.1488,1.149,1.1491,1.1526,0,0,0,0,0,0,1.1435,1.1438,1.145,1.1444,1.1445,1.1469,1.1441,1.1438,1.1441,1.1438,1.1434,1.1432,1.1421,1.1439,1.1442,1.1458,1.1424,1.1486,1.1489,1.1491,1.1523,1.1529,1.1533,0,0,0,0,0,1.1435,1.146,1.145,1.1453,1.1459,1.147,1.1471,1.1458,1.1443,1.1454,1.1447,1.1432,1.1455,1.1442,1.1444,1.1461,1.1485,1.1488,1.1491,1.1521,1.1528,1.1533,0,0,0,0,0,0,1.1468,1.1459,1.1448,1.1472,1.1472,1.1465,1.1479,1.1466,1.147,1.1467,1.145,1.145,1.147,1.1467,1.1452,1.1489,1.1467,1.1471,1.149,1.1496,1.1501,1.1501,1.1425,0,0,0,0,0,1.1478,1.1488,1.1479,1.1501,1.1502,1.149,1.1495,1.1484,1.1484,1.1484,1.1479,1.1479,1.1486,1.1491,1.1497,1.1523,1.1521,1.1536,1.1541,1.1545,1.1548,1.156,1.1566,1.1501,1.1501,1.1501,0,0,1.1499,1.1495,1.1502,1.1508,1.1506,1.1516,1.149,1.1503,1.151,1.1485,1.1502,1.1498,1.1497,1.1519,1.1528,1.1517,1.1565,1.1548,1.1552,1.1552,1.1564,1.157,1.1575,1.1503,1.1503,1.1502,0,0,1.1542,1.1541,1.1558,1.1557,1.1556,1.1548,1.1552,1.1547,1.1543,1.1559,1.1541,1.1549,1.1562,1.1562,1.1563,1.1606,1.1591,1.1608,1.1634,1.1647,1.1652,1.1656,1.167,1.1675,1.1611,1.1611,1.1611,0,1.1568,1.1583,1.1569,1.1582,1.1584,1.1562,1.1579,1.158,1.158,1.1582,1.157,1.1585,1.1583,1.1604,1.1614,1.1616,1.162,1.1608,1.1652,1.1656,1.166,1.1673,1.1679,1.1613,1.1613,1.1613,1.1613,0,1.1614,1.1625,1.1639,1.164,1.1644,1.1659,1.1646,1.1652,1.1642,1.1635,1.1651,1.1648,1.1653,1.1657,1.1647,1.1676,1.1669,1.1655,1.1633,1.1669,1.1681,1.1686,1.1616,1.1615,1.1615,1.1614,0,0,1.1678,1.167,1.1676,1.1675,1.1672,1.1679,1.1693,1.1697,1.1702,1.1703,1.1714,1.1725,1.1712,1.1713,1.1703,1.1714,1.1746,1.1698,1.1698,1.1706,1.1777,1.1787,1.1793,1.1737,1.1738,1.1739,1.1776,0,1.1719,1.1741,1.1729,1.1753,1.1762,1.1741,1.1753,1.1752,1.1746,1.1753,1.1746,1.1754,1.1736,1.1737,1.1747,1.174,1.176,1.1738,1.1746,1.1746,1.1746,1.1799,1.181,1.1845,1.1781,1.1782,1.1783,0,1.1769,1.1771,1.1796,1.179,1.1793,1.1804,1.1807,1.1813,1.1811,1.1806,1.1808,1.1795,1.1808,1.1787,1.1804,1.1789,1.1791,1.1789,1.179,1.1789,1.1766,1.1799,1.1857,1.1862,1.179,1.1789,1.1789,0,1.1811,1.1821,1.1837,1.1837,1.1831,1.1839,1.1836,1.1833,1.1837,1.1839,1.184,1.1844,1.1846,1.1849,1.1838,1.1824,1.1856,1.1834,1.1851,1.1851,1.1858,1.1857,1.1916,1.1862,1.1862,1.1862,1.1862,0,1.1857,1.1872,1.1855,1.1865,1.1882,1.1868,1.1885,1.188,1.1878,1.1886,1.1869,1.1877,1.1862,1.1868,1.1859,1.1874,1.1875,1.1871,1.1868,1.1872,1.1872,1.1873,1.1869,1.1863,1.1863,1.1862,1.1862,0,1.1906,1.1896,1.1911,1.1904,1.1902,1.1915,1.1908,1.1917,1.191,1.192,1.1922,1.1911,1.1918,1.1907,1.1912,1.1906,1.1926,1.192,1.1926,1.1924,1.1941,1.1939,1.2001,1.2008,1.1951,1.1951,1.1952,0,1.1935,1.1947,1.194,1.1944,1.1943,1.195,1.1953,1.1939,1.1943,1.1941,1.195,1.1955,1.1958,1.197,1.1962,1.1966,1.1959,1.1981,1.196,1.1963,1.1958,1.1957,1.1957,1.1984,1.1985,1.1986,1.1986,0,1.1988,1.1982,1.1986,1.1989,1.1993,1.1994,1.1995,1.1999,1.1984,1.1989,1.1996,1.1998,1.2004,1.2009,1.2011,1.2008,1.1994,1.1993,1.1997,1.2,1.2003,1.2,1.1937,1.1991,1.1991,1.199,1.199,1.199,1.2027,1.2036,1.2032,1.2038,1.2037,1.2037,1.2044,1.2038,1.2043,1.2046,1.2038,1.2046,1.2043,1.2044,1.2043,1.2049,1.204,1.2046,1.2047,1.2048,1.205,1.2003,1.205,1.205,1.2049,1.2049,1.2049,0,1.2077,1.2074,1.2079,1.208,1.2084,1.2071,1.2071,1.2075,1.2082,1.2081,1.2084,1.2091,1.2096,1.2089,1.2092,1.2098,1.2092,1.21,1.2098,1.2098,1.2059,1.2055,1.2104,1.2104,1.2104,1.2104,1.2104,1.2104,1.2104,1.2118,1.2111,1.2124,1.2121,1.2128,1.2129,1.2129,1.2128,1.2136,1.214,1.2135,1.2131,1.2134,1.2138,1.2136,1.2137,1.2147,1.2142,1.2106,1.2101,1.2095,1.2091,1.2147,1.2147,1.218,1.218,1.218]},{"header":{"parameterUnit":"m.s-1","parameterCategory":1,"la1":30.2991,"la2":30.254,"lo1":-89.0895,"lo2":-89.0444,"dy":0.0017,"dx":0.0017,"nx":28,"ny":28,"refTime":"2024-04-17T09:00:00:Z","depth":0,"parameterNumber":3,"parameterNumberName":"V-component_of_WINDS"},"data":[0,0,0,0,0,0,0,0,0,0,0,0,0,0,0,0,0,0,0,0,0,0,0,0,0,0,0,0,0,0,0,0,0,0,0,0,0,0,0,0,0,0,0,0,0,0,0,0,0,0,0,0,0,0,0,0,0,0,2.7929,2.7929,0,2.7956,2.7956,2.7957,2.7918,2.7917,2.7915,2.7914,2.7939,2.7941,2.7943,0,0,0,0,0,0,0,0,0,0,0,0,0,2.7841,2.7843,2.7929,2.7929,2.793,2.7956,2.7956,2.7957,2.7918,2.7917,2.7915,2.7914,2.7939,2.7941,2.7943,0,0,0,0,0,0,0,0,0,0,0,0,0,2.7875,2.7844,2.7929,2.7914,2.7913,2.7956,2.7956,2.7957,2.7919,2.7917,2.7915,2.7913,2.7938,2.7941,2.7944,2.8002,0,0,2.7953,2.7954,0,0,0,0,0,0,0,0,2.7873,2.7878,2.7916,2.7915,2.7914,2.7932,2.7934,2.7972,2.7919,2.7916,2.7914,2.7912,2.7938,2.7941,2.795,2.8003,2.8004,2.7953,2.7955,2.7956,2.7957,0,0,0,0,0,0,0,2.7871,2.7877,2.7939,2.7916,2.7915,2.7905,2.7907,2.7941,2.7938,2.7916,2.7914,2.7918,2.7937,2.7948,2.7951,2.8005,2.7953,2.7955,2.7957,2.7958,2.8106,2.8108,0,0,0,0,0,0,2.7871,2.7875,2.7939,2.794,2.7888,2.7908,2.7911,2.7928,2.7938,2.7937,2.7919,2.7916,2.7944,2.7947,2.7952,2.802,2.7956,2.7958,2.796,2.8104,2.8106,2.8108,0,0,0,0,0,0,2.7869,2.7877,2.7938,2.7907,2.7914,2.7912,2.7931,2.7929,2.794,2.794,2.7939,2.7931,2.7942,2.7947,2.799,2.802,2.796,2.7962,2.8101,2.8104,2.8107,2.8158,0,0,0,0,0,0,2.7866,2.7876,2.7899,2.7908,2.7916,2.7977,2.7933,2.7931,2.7945,2.7941,2.795,2.795,2.7941,2.7986,2.7993,2.8023,2.7965,2.8098,2.8102,2.8106,2.8154,2.8163,2.817,0,0,0,0,0,2.7863,2.7912,2.7901,2.7909,2.7945,2.7978,2.7983,2.7972,2.7948,2.797,2.797,2.795,2.8016,2.799,2.7998,2.803,2.8096,2.8101,2.8106,2.815,2.8161,2.817,0,0,0,0,0,0,2.7907,2.7913,2.79,2.7953,2.7966,2.7972,2.8,2.7984,2.8003,2.7998,2.7983,2.7986,2.8031,2.8035,2.8006,2.8086,2.8052,2.8059,2.8083,2.8093,2.8101,2.8099,2.7967,0,0,0,0,0,2.7923,2.795,2.7954,2.8,2.8007,2.8003,2.8017,2.8008,2.802,2.8024,2.8027,2.8039,2.8062,2.8078,2.8099,2.8154,2.8155,2.8179,2.8188,2.8195,2.82,2.8229,2.8239,2.8125,2.8125,2.8124,0,0,2.7955,2.7962,2.7981,2.8009,2.8018,2.8046,2.8007,2.8039,2.8059,2.8029,2.8069,2.8072,2.8083,2.8132,2.8153,2.8136,2.8232,2.8201,2.8206,2.8208,2.8235,2.8246,2.8255,2.8128,2.8127,2.8127,0,0,2.8029,2.8038,2.8077,2.8086,2.81,2.8096,2.8106,2.8114,2.8115,2.8155,2.8133,2.8156,2.8197,2.8206,2.8216,2.8292,2.8274,2.8299,2.8343,2.8371,2.838,2.8388,2.8415,2.8425,2.8305,2.8305,2.8305,0,2.8068,2.8111,2.8099,2.8132,2.8145,2.8119,2.8158,2.8167,2.8187,2.8196,2.8176,2.8226,2.8232,2.8282,2.8301,2.831,2.8319,2.8298,2.838,2.8388,2.8395,2.842,2.843,2.8308,2.8308,2.8308,2.8307,0,2.8157,2.8187,2.8217,2.8237,2.8253,2.8289,2.8282,2.8299,2.8288,2.8286,2.8327,2.8333,2.8355,2.8366,2.8356,2.8415,2.8404,2.8382,2.8347,2.8409,2.8433,2.8442,2.8313,2.8312,2.8311,2.831,0,0,2.826,2.8273,2.8284,2.8292,2.8305,2.8327,2.8361,2.8383,2.8398,2.8412,2.844,2.8474,2.8454,2.8465,2.8456,2.848,2.8539,2.8455,2.8455,2.8471,2.8604,2.862,2.8631,2.8527,2.8529,2.853,2.8603,0,2.8334,2.8394,2.8384,2.8441,2.8468,2.8443,2.8473,2.8483,2.8482,2.8504,2.8502,2.8527,2.8499,2.8505,2.8528,2.8527,2.8566,2.8522,2.8552,2.8553,2.855,2.8644,2.8661,2.8729,2.8612,2.8613,2.8615,0,2.8428,2.8446,2.8507,2.8514,2.8525,2.8552,2.857,2.8592,2.8602,2.86,2.8612,2.8598,2.863,2.8595,2.8639,2.861,2.8621,2.8622,2.8625,2.8627,2.8588,2.8648,2.875,2.8761,2.8629,2.8628,2.8627,0,2.8496,2.8535,2.8577,2.8585,2.8594,2.8614,2.8619,2.8627,2.8641,2.8657,2.8665,2.8685,2.8696,2.8711,2.8701,2.8677,2.8747,2.8711,2.8745,2.8746,2.8761,2.8761,2.8867,2.8769,2.8769,2.8769,2.8769,0,2.858,2.8618,2.8607,2.8633,2.8674,2.8661,2.8702,2.8704,2.8712,2.8736,2.8716,2.8739,2.8725,2.8747,2.8739,2.8777,2.8782,2.878,2.8778,2.8782,2.8782,2.8789,2.8784,2.8771,2.8771,2.877,2.877,0,2.8663,2.8658,2.8701,2.8707,2.8709,2.8739,2.8744,2.8767,2.8764,2.8795,2.8801,2.8797,2.8821,2.8813,2.8839,2.8834,2.8882,2.8874,2.8879,2.8877,2.8911,2.8908,2.9026,2.904,2.8933,2.8934,2.8935,0,2.8717,2.8746,2.8754,2.8769,2.8776,2.8801,2.8814,2.8803,2.8818,2.8831,2.8853,2.8875,2.8893,2.8933,2.8931,2.8951,2.8943,2.8982,2.8945,2.8949,2.8943,2.8941,2.8944,2.899,2.8991,2.8992,2.8993,0,2.8812,2.8808,2.8829,2.885,2.8867,2.8882,2.8895,2.8908,2.8897,2.8915,2.894,2.8954,2.898,2.9003,2.902,2.9024,2.9007,2.9005,2.9013,2.9018,2.902,2.9019,2.8899,2.9002,2.9001,2.9,2.9,2.9,2.8882,2.8906,2.8916,2.894,2.8949,2.8961,2.8983,2.8983,2.9004,2.9025,2.9016,2.9045,2.9054,2.9076,2.9082,2.9103,2.9088,2.9101,2.9104,2.9108,2.9112,2.9017,2.9107,2.9106,2.9106,2.9106,2.9106,0,2.8977,2.8982,2.9004,2.9023,2.9041,2.9024,2.9037,2.9053,2.9079,2.9089,2.9107,2.9135,2.9156,2.9156,2.9176,2.9193,2.9186,2.9199,2.9198,2.9199,2.9125,2.9115,2.9205,2.9205,2.9205,2.9205,2.9205,2.9205,2.9028,2.9067,2.9064,2.9107,2.9112,2.914,2.9149,2.916,2.9168,2.9201,2.9219,2.9219,2.9224,2.9244,2.9263,2.9262,2.927,2.9286,2.9283,2.9214,2.9204,2.9195,2.9185,2.9288,2.9288,2.9355,2.9355,2.9356]}]]